Regional Weather Roundup
Issued by NWS Newport/Morehead, NC

Current Version | Previous Version | Graphics & Text | Print | Product List | Glossary Off
Versions: 1 2 3 4 5 6 7 8 9 10 11 12 13 14 15 16 17 18 19 20 21 22 23 24 25 26 27 28 29 30 31 32 33 34 35 36 37 38 39 40 41 42 43 44 45 46 47 48 49 50

000
ASUS42 KMHX 271114
RWRMHX
WEATHER ROUNDUP FOR EASTERN NORTH CAROLINA
NATIONAL WEATHER SERVICE NEWPORT/MOREHEAD CITY NC
700 AM EDT TUE JUN 27 2017

NOTE: "FAIR" INDICATES FEW OR NO CLOUDS BELOW 12,000 FEET
WITH NO SIGNIFICANT WEATHER AND/OR OBSTRUCTIONS TO VISIBILITY

NCZ015>017-031-032-045>047-102-103-271200-
NORTH COAST

CITY           SKY/WX    TMP DP  RH WIND       PRES   REMARKS
EDENTON        CLOUDY    76  67  74 CALM      30.02S
ELIZABETH CITY CLOUDY    69  68  96 SW3       30.02R
KITTY HAWK     CLOUDY    70  65  85 CALM      30.01R
MANTEO         CLOUDY    69  65  89 CALM      30.02S

$$

NCZ045>047-081-094-103-104-271200-
CENTRAL COAST

CITY           SKY/WX    TMP DP  RH WIND       PRES   REMARKS
FRISCO         MOSUNNY   69  66  90 CALM      30.01S

$$

NCZ095-097-098-100-101-271200-
SOUTHERN COAST

CITY           SKY/WX    TMP DP  RH WIND       PRES   REMARKS
BEAUFORT       CLOUDY    73  72  96 NW6       30.02R
CEDAR ISLAND   NOT AVBL
JACKSONVILLE   SUNNY     66  66 100 W3        30.02S
PINEY ISLAND   MOSUNNY  N/A N/A N/A CALM      30.01S
WILMINGTON     MOSUNNY   68  66  93 CALM      30.02S


$$

NCZ011>013-027>030-043-044-078>080-089-090>093-098-271200-
COASTAL PLAIN

CITY           SKY/WX    TMP DP  RH WIND       PRES   REMARKS
AHOSKIE          N/A     62  62  98 CALM      30.03R
CLINTON        CLEAR     65  65 100 CALM      30.03S
ELIZABETHTOWN  NOT AVBL
GOLDSBORO      SUNNY     67  67 100 CALM      30.01S
GREENVILLE     SUNNY     68  64  88 CALM      30.04R
HAVELOCK       MOSUNNY   67  66  97 CALM      30.03S
KENANSVILLE    MOSUNNY   63  61  94 CALM      30.03S
KINSTON        SUNNY     64  64 100 CALM      30.03S
NEW BERN       SUNNY     67  66  97 CALM      30.03S
RICHLANDS      SUNNY     64  62  93 CALM      30.03
ROCKY MOUNT    MOSUNNY   67  65  93 NW6       30.03R
WASHINGTON       N/A    N/A N/A N/A CALM      30.03S
WHITEVILLE     CLEAR     65  63  93 CALM      30.03R

$$

AMZ130-135-150-152-154-156-158-170-250-252-270-ANZ085-086-088-633-658-670-271200-
MARINE OBSERVATIONS

STATION/POSITION TIME  TEMP    WIND        PRES    WAVE   SWELL
                       AIR SEA DIR/SP/G            HT/PER HT/PER
                 (UTC) (F)     (DEG/KT/KT) (MB)    (FT/S) (FT/S)
CHESAPEAKE LIGHT NOT AVBL
64 E VA BEACH    1050   73 73  170/  2/  2 1016.9    2/ 5   2/ 5
DUCK             1048   76 71  240/  6/  8 1015.9
2 E DUCK         NOT AVBL
OREGON INLET     1048          130/  2/  3   N/A
13E OREGON INLT  1048      73                N/A     2/ 8   2/ 8
HATTERAS CG      1048   76 77  320/  4/  5 1016.1
DIAMOND BUOY     1050   77 81  350/  8/ 10 1016.0    2/ 7   2/ 7
CAPE LOOKOUT     1100   75     350/  5/  6 1016.1
BEAUFORT LAB     1048   72 78  330/  3/  5 1015.8
30 SE NEW RVR IN 1008   77 80  350/  4/  6 1016.5
30 SE NEW RVR IN 1043      80                N/A     2/ 7
27 SE WRIGHTSVLE 1008   76 80  300/  4/  8 1015.8
5 SE WRIGHTSVLE  1008   74 79  310/  6/ 10 1016.5
225 S CAPE HAT   1050   77 80  250/ 16/ 19 1016.5    3/ 5
41 SE CHARLESTON 1050   79 81   20/  8/ 10 1016.0    2/ 8   2/ 8

$$




USA.gov is the U.S. government's official web portal to all federal, state and local government web resources and services.